Temp
61 60 59 60 59 60 61 61 62 62 61 61 60 60 60 59 58 58 58 56 57 58
61 61 58 60 60 59 60 62 60 61 62 61 61 62 59 59 58 58 58 58 58 58
62 62 60 59 58 60 60 61 61 60 59 60 61 61 61 60 59 59 59 60 58 59
62 62 62 60 59 60 60 60 60 61 60 61 61 61 60 61 61 60 60 60 58 58
62 62 61 62 61 61 60 61 61 61 61 61 62 62 61 61 61 58 59 59 58 58
59 61 61 62 62 62 61 60 61 61 60 61 61 61 60 60 60 60 59 60 58 59
58 59 60 62 62 62 62 62 61 61 61 61 62 61 61 60 59 59 60 60 60 59
59 60 60 61 61 63 62 62 62 61 61 61 61 61 60 61 60 59 59 60 60 60
59 59 58 59 60 61 61 62 62 61 61 59 61 52 49 55 59 60 59 58 59 60
60 59 59 59 59 59 59 60 59 60 60 60 60 49 47 46 59 59 58 58 58 58
51 53 55 60 59 58 59 58 58 59 60 60 61 47 46 45 56 60 60 60 60 59
49 49 50 50 50 56 59 59 59 60 59 59 60 44 45 45 56 58 58 60 60 57
44 45 44 45 45 46 48 53 57 47 39 36 39 36 37 40 51 54 53 41 37 36
38 40 40 41 42 42 44 41 38 35 34 34 34 34 36 36 38 42 34 33 32 33
MSLP
1008.97 1009.48 1009.93 1010.43 1011.02 1011.30 1011.72 1012.18 1012.55 1013.07 1013.56 1013.99 1014.56 1015.16 1015.77 1016.01 1016.28 1016.70 1017.04 1017.41 1017.89 1018.30
1008.77 1009.15 1009.68 1009.94 1010.40 1010.92 1011.35 1011.80 1012.32 1012.84 1013.32 1013.74 1014.26 1014.68 1015.01 1015.55 1015.96 1016.41 1016.73 1017.02 1017.36 1017.57
1008.36 1008.80 1009.34 1009.80 1010.15 1010.54 1010.95 1011.36 1011.88 1012.37 1012.78 1013.29 1013.64 1014.04 1014.51 1015.07 1015.46 1015.93 1016.16 1016.37 1016.71 1017.10
1007.90 1008.36 1008.89 1009.43 1009.79 1010.20 1010.72 1011.11 1011.45 1011.87 1012.22 1012.58 1012.91 1013.36 1013.86 1014.22 1014.56 1014.93 1015.23 1015.63 1015.95 1016.15
1007.30 1007.81 1008.27 1008.63 1009.18 1009.83 1010.32 1010.71 1011.08 1011.47 1011.82 1012.21 1012.50 1012.81 1013.07 1013.42 1013.85 1014.23 1014.45 1014.64 1014.88 1014.99
1006.71 1007.12 1007.62 1008.12 1008.64 1009.15 1009.67 1010.15 1010.55 1010.86 1011.22 1011.50 1011.82 1012.21 1012.47 1012.75 1013.03 1013.19 1013.44 1013.81 1014.03 1014.01
1006.12 1006.56 1006.98 1007.33 1007.81 1008.35 1008.90 1009.23 1009.61 1010.01 1010.38 1010.66 1011.01 1011.30 1011.62 1011.97 1012.20 1012.34 1012.49 1012.76 1012.78 1012.94
1005.40 1005.82 1006.23 1006.60 1006.87 1007.26 1007.72 1008.08 1008.52 1009.03 1009.35 1009.70 1010.01 1010.21 1010.56 1010.90 1011.18 1011.43 1011.56 1011.68 1011.69 1011.70
1006.27 1006.58 1006.40 1006.32 1006.33 1006.46 1006.77 1007.10 1007.54 1007.78 1008.19 1008.55 1008.63 1008.84 1009.31 1009.78 1010.09 1010.29 1010.41 1010.34 1010.44 1010.44
1005.56 1005.68 1005.87 1005.97 1006.12 1006.20 1006.37 1006.63 1006.69 1006.90 1007.20 1007.35 1007.44 1007.75 1008.27 1008.88 1009.19 1009.13 1008.96 1008.99 1009.18 1009.25
1006.46 1006.35 1006.06 1005.65 1005.70 1005.74 1005.88 1005.85 1005.92 1006.05 1006.14 1006.45 1006.32 1006.85 1007.29 1007.59 1007.88 1007.67 1007.45 1007.47 1007.52 1007.58
1007.36 1006.93 1006.49 1006.33 1006.20 1005.79 1005.53 1005.39 1005.27 1005.38 1005.86 1006.22 1005.67 1006.69 1006.48 1006.48 1006.48 1006.46 1006.23 1006.11 1006.18 1006.33
1008.78 1008.38 1007.94 1007.45 1007.02 1006.67 1006.28 1005.69 1005.20 1006.19 1007.13 1007.42 1007.60 1008.01 1007.49 1006.97 1006.13 1005.90 1005.72 1006.26 1006.85 1007.02
1010.03 1009.63 1009.23 1008.77 1008.20 1007.48 1007.14 1007.05 1007.22 1007.63 1008.39 1008.45 1008.54 1008.46 1008.00 1007.13 1006.73 1006.65 1006.65 1007.10 1007.53 1007.62
Wind_Speed
12 8 8 11 8 9 9 9 8 9 8 9 10 10 10 6 5 6 7 8 6 5
11 12 10 12 10 8 8 7 6 8 10 9 10 11 8 6 6 7 7 8 8 6
12 13 12 10 11 12 11 12 11 10 9 9 9 10 10 8 7 10 9 8 10 10
12 13 13 11 12 12 12 11 11 12 11 13 12 12 10 11 12 13 13 12 12 14
13 13 13 12 13 13 13 12 12 12 13 13 13 13 15 15 13 13 15 15 14 16
13 14 14 14 12 13 14 13 13 14 15 15 15 14 14 15 15 16 16 16 15 17
15 13 12 13 13 13 14 15 15 15 16 16 16 16 16 16 16 16 16 16 18 18
15 14 14 15 14 14 15 15 15 15 15 16 16 14 18 17 16 17 17 17 18 18
7 9 12 13 15 15 15 15 15 17 17 17 14 18 20 18 16 17 17 18 18 18
6 11 13 13 14 15 16 15 16 17 17 18 19 18 19 20 17 16 17 18 16 16
9 7 7 11 14 14 13 16 16 17 17 17 17 14 19 21 18 18 21 20 19 19
12 11 9 9 8 7 11 13 15 13 14 16 18 7 14 15 17 19 21 19 20 15
13 11 11 10 9 6 7 9 4 10 11 15 11 20 17 9 9 14 12 3 4 10
14 12 13 11 9 8 7 8 9 11 11 13 16 13 20 18 4 6 3 4 5 6
Wind_Direction
182 184 184 183 184 187 192 199 187 194 185 180 177 181 188 189 178 178 184 180 180 192
187 185 192 194 185 183 195 194 171 182 193 185 185 187 176 187 186 187 192 198 207 198
190 193 192 186 193 197 198 193 182 181 179 181 188 188 190 195 192 196 201 202 202 219
191 194 192 193 198 201 200 194 192 201 195 193 192 195 200 207 205 206 205 206 206 217
193 188 195 195 200 201 206 205 204 203 210 209 210 209 210 211 210 211 216 212 210 218
196 196 199 206 200 201 205 209 212 208 214 217 216 216 217 220 221 222 223 222 221 224
201 202 203 203 201 200 206 209 210 213 219 221 221 221 222 222 225 228 229 227 228 227
203 203 206 210 207 205 205 210 214 216 218 218 219 220 221 223 225 229 233 232 232 230
221 224 222 219 219 217 216 214 214 217 216 219 222 218 212 216 223 228 232 236 237 239
220 215 219 218 218 220 222 222 220 221 221 226 230 217 210 209 227 230 232 235 237 239
19 6 341 225 225 225 221 221 220 225 225 229 237 218 213 209 221 231 235 234 234 234
5 4 2 9 3 312 235 226 226 227 229 230 241 319 254 212 225 234 238 239 239 241
11 13 5 2 3 351 340 330 280 64 48 37 25 15 359 341 246 234 231 193 36 6
21 18 13 1 5 7 26 45 56 66 52 49 35 31 24 22 348 312 38 61 68 64